CZ-6A DEB, 54460

Orbit data source: Space-Track

CZ-6A DEB, 54460 is space debris in SSO originally from a launch on Fri, 11 Nov 2022 UTC launched from the Taiyaun Space Center, China (TSC). Debris objects in space refer to the collection of defunct objects orbiting the Earth. Examples of debris include non-operational satellites, rocket bodies, and fragments generated from explosions, collisions, or faulty payload assembly.

Loading next visibility...
Identifier
54460, 2022-151GL
Orbit
SSO
Country
Flag of CNCN / PRC
Related business
Manufacturer
SAST
Mission
Spacecraft
Bus & Motor
Unknown
Mass
Unknown
Launch date (UTC)
2022-11-11 (4 years ago)
Launch vehicle
Unknown
Launch site
Taiyaun Space Center, China (TSC)
Object type
Payload
Rocket body
Debris
Shape & HBR
Unknown shape, 0.1 m
Radar Cross Section
Small (<0.1 m²)

Expand to show TLE details & history
Last TLE update: 11 hours ago

TLE from 11 hours ago
0 CZ-6A DEB
1 54460U 22151GL  26238.07810749  .00000912  00000-0  30660-3 0  9997
2 54460  98.6726 271.6048 0120935 224.4401 134.7033 14.35600772197670
Epoch: 2026-08-26T01:52Z
TLE epoch observation values (Epoch: 2026-08-26T01:52:28.487Z)
Latitude
0.00002°
Longitude
-90.85017°
Altitude
837.377 km
Speed
7.402 km/s
True Right ascension
18h 06m 25s
True Declination
0° 00' 00"
Sunlit
Object was in daylight at epoch
Visualization orbit readout
Latitude
Unknown
Longitude
Unknown
Altitude
Unknown
Speed
Unknown
Apparent Right ascension
Unknown
Apparent Declination
Unknown
Sunlit
N/A
Visualization observer readout
Local Sidereal Time
04:39:00
Azimuth
Unknown
Elevation
Unknown
Doppler factor
Unknown
Orbital elements
Apogee altitude
856.654 km
Perigee altitude
683.757 km
Semi-major axis
7,148.343 km
Eccentricity
0.01209
Inclination
98.6726°
RAAN
271.6048°
Arg. of periapsis
224.4401°
True anomaly
135.67786°
Mean anomaly
134.7033°
Eccentric anomaly
135.19162°
Mean motion
3.59116 °/min
Orbital period
100.25 mins
BSTAR
0.0003066
Loading maneuver chart data...
Computing Atmospheric mass density...
Loading historical data...
Loading historical data...
Loading historical data...
Loading historical data...
Loading historical data...
Loading historical data...
Loading historical data...

Documentation

Showing up to 5 results
|